Location: St Paul
(33.9360°N, 83.4200°W)
Time: 09:52:01
(UTC-04:00)

ATLAS 2AS CENTAUR R/B - Pass Details

Date: 06 October 2017
Orbit: 906 x 1306 km, 63.7° (Epoch: 30 September)

Event Time Altitude Azimuth Distance (km) Brightness Sun altitude
Rises 19:34:41 0° 332° (NNW) 4,268 6.2 -5.8°
Reaches altitude 10° 19:37:39 10° 336° (NNW) 3,266 5.5 -6.4°
Maximum altitude 19:45:29 62° 56° (NE) 1,345 3.0 -8.0°
Drops below altitude 10° 19:52:37 10° 136° (SE) 2,996 4.6 -9.5°
Sets 19:55:13 0° 140° (SE) 3,895 5.3 -10.0°
